OK2PAT-12 Weather Reports


time (UTC)temp
C
wind
direction
speed
KPH
gust
KPH
rain 1hr
cm
rain 24hr
cm
rain mn
cm
humidity
%
barometer
mb
20260507103733 22 0.0 0.0 0.00 0.00 0.00 50 1012.5
20260507102733 22 0.0 0.0 0.00 0.00 0.00 49 1012.4
20260507101733 -17 0.0 0.0 0.00 0.00 0.00 51 1012.4
20260507100733 22 0.0 0.0 0.00 0.00 0.00 51 1012.4
20260507095733 21 0.0 0.0 0.00 0.00 0.00 52 1012.3
20260507094733 21 0.0 0.0 0.00 0.00 0.00 52 1012.2
20260507093732 22 0.0 0.0 0.00 0.00 0.00 52 1012.1
20260507092732 22 0.0 0.0 0.00 0.00 0.00 53 1012.0
20260507090732 21 0.0 0.0 0.00 0.00 0.00 55 1011.9
20260507085732 21 0.0 0.0 0.00 0.00 0.00 55 1011.8
20260507084732 21 0.0 0.0 0.00 0.00 0.00 57 1011.8
20260507083732 20 0.0 0.0 0.00 0.00 0.00 59 1011.7
20260507082732 20 0.0 0.0 0.00 0.00 0.00 61 1011.7
20260507081732 20 0.0 0.0 0.00 0.00 0.00 62 1011.7
20260507080732 20 0.0 0.0 0.00 0.00 0.00 64 1011.6
20260507075732 19 0.0 0.0 0.00 0.00 0.00 65 1011.5
20260507074731 19 0.0 0.0 0.00 0.00 0.00 65 1011.5
20260507073731 18 0.0 0.0 0.00 0.00 0.00 65 1011.5
20260507072731 19 0.0 0.0 0.00 0.00 0.00 65 1011.4
20260507071731 19 0.0 0.0 0.00 0.00 0.00 66 1011.3
20260507070728 18 0.0 0.0 0.00 0.00 0.00 68 1011.2
20260507065728 18 0.0 0.0 0.00 0.00 0.00 70 1011.2
20260507064728 18 0.0 0.0 0.00 0.00 0.00 71 1011.1
20260507063728 17 0.0 0.0 0.00 0.00 0.00 72 1011.0
20260507062725 17 0.0 0.0 0.00 0.00 0.00 73 1011.1
20260507061725 17 0.0 0.0 0.00 0.00 0.00 74 1011.0
20260507060725 16 0.0 0.0 0.00 0.00 0.00 75 1010.9
20260507055725 16 0.0 0.0 0.00 0.00 0.00 76 1010.7
20260507053725 15 0.0 0.0 0.00 0.00 0.00 78 1010.6
20260507052725 15 0.0 0.0 0.00 0.00 0.00 79 1010.5
20260507051725 15 0.0 0.0 0.00 0.00 0.00 79 1010.4
20260507045725 15 0.0 0.0 0.00 0.00 0.00 80 1010.1
20260507044725 14 0.0 0.0 0.00 0.00 0.00 80 1010.0
20260507042724 14 0.0 0.0 0.00 0.00 0.00 81 1009.8
20260507040723 14 0.0 0.0 0.00 0.00 0.00 81 1009.5
20260507035723 13 0.0 0.0 0.00 0.00 0.00 82 1009.3
20260507034723 13 0.0 0.0 0.00 0.00 0.00 82 1009.2
20260507033723 13 0.0 0.0 0.00 0.00 0.00 83 1009.2
20260507032723 13 0.0 0.0 0.00 0.00 0.00 84 1009.2
20260507030723 12 0.0 0.0 0.00 0.00 0.00 87 1009.0
20260507024722 12 0.0 0.0 0.00 0.00 0.00 87 1008.9
20260507023721 12 0.0 0.0 0.00 0.00 0.00 87 1008.8
20260507022721 12 0.0 0.0 0.00 0.00 0.00 86 1008.6
20260507020722 12 0.0 0.0 0.00 0.00 0.00 83 1008.6
20260507014721 13 0.0 0.0 0.00 0.00 0.00 80 1008.4
20260507013104 13 0.0 0.0 0.00 0.00 0.00 78 1008.2
20260507012104 13 0.0 0.0 0.00 0.00 0.00 78 1008.1
20260507010719 13 0.0 0.0 0.00 0.00 0.00 78 1008.1
20260507005720 13 0.0 0.0 0.00 0.00 0.00 79 1008.1
20260507004720 13 0.0 0.0 0.00 0.00 0.00 80 1008.0
20260507003719 13 0.0 0.0 0.00 0.00 0.00 80 1007.9
20260507002719 13 0.0 0.0 0.00 0.00 0.00 81 1007.9
20260507001719 13 0.0 0.0 0.00 0.00 0.00 80 1008.0
20260507000719 13 0.0 0.0 0.00 0.00 0.00 80 1008.3
20260506235719 13 0.0 0.0 0.00 0.00 0.00 80 1008.2
20260506234719 13 0.0 0.0 0.00 0.00 0.00 80 1008.1
20260506232720 13 0.0 0.0 0.00 0.00 0.00 81 1008.2
20260506231720 13 0.0 0.0 0.00 0.00 0.00 80 1008.2
20260506230720 13 0.0 0.0 0.00 0.00 0.00 80 1008.2
20260506225720 14 0.0 0.0 0.00 0.00 0.00 79 1008.2
20260506224720 14 0.0 0.0 0.00 0.00 0.00 77 1008.2
20260506223720 15 0.0 0.0 0.00 0.00 0.00 74 1008.3
20260506222720 15 0.0 0.0 0.00 0.00 0.00 70 1008.1
20260506221720 16 0.0 0.0 0.00 0.00 0.00 65 1008.0
20260506220720 17 0.0 0.0 0.00 0.00 0.00 60 1007.9
20260506214720 17 0.0 0.0 0.00 0.00 0.00 58 1007.7
20260506213719 17 0.0 0.0 0.00 0.00 0.00 57 1007.6
20260506212719 18 0.0 0.0 0.00 0.00 0.00 57 1007.5
20260506210718 18 0.0 0.0 0.00 0.00 0.00 56 1007.3
20260506205718 18 0.0 0.0 0.00 0.00 0.00 55 1007.3
20260506204718 18 0.0 0.0 0.00 0.00 0.00 55 1007.2
20260506203718 18 0.0 0.0 0.00 0.00 0.00 55 1007.2
20260506202718 18 0.0 0.0 0.00 0.00 0.00 55 1007.2
20260506201718 18 0.0 0.0 0.00 0.00 0.00 55 1007.1
20260506200717 18 0.0 0.0 0.00 0.00 0.00 55 1007.0
20260506195718 18 0.0 0.0 0.00 0.00 0.00 56 1007.0
20260506194718 18 0.0 0.0 0.00 0.00 0.00 56 1007.0
20260506193717 18 0.0 0.0 0.00 0.00 0.00 56 1007.0
20260506192718 18 0.0 0.0 0.00 0.00 0.00 55 1007.0
20260506191717 18 0.0 0.0 0.00 0.00 0.00 55 1006.9
20260506190717 18 0.0 0.0 0.00 0.00 0.00 55 1006.7
20260506185717 18 0.0 0.0 0.00 0.00 0.00 55 1006.5
20260506184718 18 0.0 0.0 0.00 0.00 0.00 54 1006.4
20260506183443 19 0.0 0.0 0.00 0.00 0.00 53 1006.3
20260506182443 19 0.0 0.0 0.00 0.00 0.00 52 1006.3
20260506181443 20 0.0 0.0 0.00 0.00 0.00 52 1006.3
20260506175700 20 0.0 0.0 0.00 0.00 0.00 50 1006.3
20260506174700 21 0.0 0.0 0.00 0.00 0.00 49 1006.4
20260506173700 21 0.0 0.0 0.00 0.00 0.00 48 1006.5
20260506172700 21 0.0 0.0 0.00 0.00 0.00 47 1006.5
20260506171700 22 0.0 0.0 0.00 0.00 0.00 46 1006.6
20260506170700 22 0.0 0.0 0.00 0.00 0.00 45 1006.6
20260506165700 22 0.0 0.0 0.00 0.00 0.00 46 1006.6
20260506164700 22 0.0 0.0 0.00 0.00 0.00 46 1006.6
20260506163700 22 0.0 0.0 0.00 0.00 0.00 45 1006.6
20260506162659 23 0.0 0.0 0.00 0.00 0.00 45 1006.8
20260506161659 23 0.0 0.0 0.00 0.00 0.00 45 1006.9
20260506160659 22 0.0 0.0 0.00 0.00 0.00 46 1007.1
20260506155659 22 0.0 0.0 0.00 0.00 0.00 46 1007.3
20260506154659 22 0.0 0.0 0.00 0.00 0.00 45 1007.4
20260506153659 23 0.0 0.0 0.00 0.00 0.00 45 1007.3
20260506152659 23 0.0 0.0 0.00 0.00 0.00 44 1007.4
20260506151659 23 0.0 0.0 0.00 0.00 0.00 43 1007.5
20260506150659 23 0.0 0.0 0.00 0.00 0.00 43 1007.6
20260506145700 23 0.0 0.0 0.00 0.00 0.00 41 1007.7
20260506144659 25 0.0 0.0 0.00 0.00 0.00 40 1007.8
20260506143659 25 0.0 0.0 0.00 0.00 0.00 39 1007.8
20260506142659 25 0.0 0.0 0.00 0.00 0.00 40 1007.8
20260506141659 27 0.0 0.0 0.00 0.00 0.00 40 1007.9
20260506140659 25 0.0 0.0 0.00 0.00 0.00 40 1008.0
20260506135659 25 0.0 0.0 0.00 0.00 0.00 40 1008.1
20260506134659 25 0.0 0.0 0.00 0.00 0.00 40 1008.2
20260506133659 25 0.0 0.0 0.00 0.00 0.00 39 1008.2
20260506132659 25 0.0 0.0 0.00 0.00 0.00 38 1008.2
20260506131659 25 0.0 0.0 0.00 0.00 0.00 38 1008.2
20260506130659 25 0.0 0.0 0.00 0.00 0.00 39 1008.3
20260506125659 25 0.0 0.0 0.00 0.00 0.00 39 1008.3
20260506124659 25 0.0 0.0 0.00 0.00 0.00 39 1008.3
20260506123659 24 0.0 0.0 0.00 0.00 0.00 41 1008.4
20260506122659 23 0.0 0.0 0.00 0.00 0.00 41 1008.4
20260506121659 23 0.0 0.0 0.00 0.00 0.00 41 1008.4
20260506120659 23 0.0 0.0 0.00 0.00 0.00 41 1008.3
20260506115659 23 0.0 0.0 0.00 0.00 0.00 42 1008.4
20260506114659 23 0.0 0.0 0.00 0.00 0.00 43 1008.4
20260506113659 22 0.0 0.0 0.00 0.00 0.00 44 1008.5
20260506112659 22 0.0 0.0 0.00 0.00 0.00 45 1008.5
20260506111659 22 0.0 0.0 0.00 0.00 0.00 45 1008.6
20260506110659 22 0.0 0.0 0.00 0.00 0.00 47 1008.6
20260506105659 22 0.0 0.0 0.00 0.00 0.00 47 1008.6
20260506104659 22 0.0 0.0 0.00 0.00 0.00 48 1008.7